#timestamp,LO_Frequency,Hit,StdDev 
1579708815.6,286047003.8,N
1579708835.5,286047004.1,N
1579708855.3,286047003.6,N
1579708875.1,286047002.0,N
1579708895.9,286047003.6,N
1579708915.7,286047003.6,N
1579708935.6,286047001.8,N
1579708955.4,286047002.0,N
1579708975.2,286047004.3,Y
1579708995.1,286046999.4,P
1579708996.0,286046999.4,N
1579709015.8,286046998.8,N
1579709035.6,286046996.9,N
1579709055.5,286046998.5,N
1579709075.3,286047000.0,N
1579709095.2,286046999.8,N
1579709115.9,286046999.3,N
1579709135.7,286046999.3,N
1579709155.6,286046996.6,N
1579709175.4,286046996.9,N
1579709195.2,286046997.1,N
1579709215.1,286047000.7,N
1579709216.0,286047000.7,N
1579709235.8,286046998.3,N
1579709255.7,286046998.2,N
1579709275.5,286047001.2,N
1579709295.3,286046999.5,N
1579709315.2,286046997.3,N
1579709335.9,286046997.4,N
1579709355.7,286046998.0,N
1579709375.6,286046995.5,N
1579709395.4,286046997.7,N
1579709415.3,286046993.9,Y
1579709435.1,286046995.9,P
1579709436.0,286046995.9,N
1579709455.8,286046998.0,N
1579709475.7,286046994.9,Y
1579709495.5,286046997.0,P
1579709515.3,286046998.3,P
1579709535.2,286046999.4,N
1579709555.0,286046997.0,Y
1579709555.9,286046997.0,P
1579709575.8,286046999.0,N
1579709595.6,286046996.9,P
1579709615.4,286046999.1,N
1579709635.3,286046996.8,Y
1579709655.1,286047001.4,P
1579709675.9,286047000.9,N
1579709695.7,286047000.5,N
1579709715.5,286047001.7,N
1579709735.4,286047002.0,N
1579709755.2,286047002.8,N
1579709775.0,286047000.2,N
1579709775.9,286047000.2,N
1579709795.8,286047001.0,N
1579709815.6,286047000.2,N
1579709835.5,286047001.6,N
1579709855.3,286047003.8,Y
1579709875.1,286047011.9,P
1579709895.9,286047004.3,N
1579709915.7,286047002.0,N
1579709935.5,286047002.5,N
1579709955.4,286047004.2,N
1579709975.2,286047004.1,N
1579709995.1,286047005.3,N
1579709996.0,286047005.3,N
1579710015.8,286047004.9,N
1579710035.6,286047003.4,N
1579710055.5,286047003.4,N
1579710075.3,286047003.4,N
1579710095.1,286047003.1,N
1579710115.9,286047003.5,N
1579710135.7,286047003.2,N
1579710155.6,286047003.1,N
1579710175.4,286047004.4,N
1579710195.2,286047001.8,N
1579710215.1,286047001.9,N
1579710216.0,286047001.9,N
1579710235.8,286047000.8,N
1579710255.6,286046999.1,N
1579710275.5,286046998.5,N
1579710295.3,286046998.7,N
1579710315.2,286046997.7,N
1579710335.9,286046995.4,N
1579710355.7,286046997.2,N
1579710375.6,286046998.7,N
1579710395.4,286046998.4,N
1579710415.2,286046998.1,N
1579710435.1,286047000.3,N
1579710436.0,286047000.3,N
1579710455.8,286047001.5,N
1579710475.7,286047002.7,N
1579710495.5,286047002.2,N
1579710515.3,286047000.2,N
1579710535.2,286047000.9,N
1579710555.0,286046998.8,N
1579710555.9,286046998.8,N
1579710575.8,286046998.3,N
1579710595.6,286046998.7,N
1579710615.4,286046998.5,N
1579710635.3,286047001.2,N
1579710655.1,286047001.1,N
1579710656.0,286047001.1,N
1579710675.8,286047001.2,N
1579710695.7,286046998.1,N
1579710715.5,286047001.8,N
1579710735.3,286047002.7,N
1579710755.2,286047002.0,N
1579710775.0,286047004.2,N
1579710775.9,286047004.2,N
1579710795.8,286046999.8,N
1579710815.6,286047001.9,N
1579710835.4,286047003.1,N
1579710855.3,286047003.7,N
1579710875.1,286047003.9,N
1579710895.8,286047001.5,N
1579710915.7,286047004.4,N
1579710935.5,286047003.7,N
1579710955.4,286047005.8,Y
1579710975.2,286047003.7,P
1579710995.0,286047001.3,N
1579710995.9,286047001.3,N
1579711015.8,286047001.5,N
1579711035.6,286047002.5,N
1579711055.4,286047002.5,N
1579711075.3,286047001.7,N
1579711095.1,286047004.3,Y
1579711115.9,286047000.1,P
1579711135.7,286047000.0,N
1579711155.5,286047002.4,N
1579711175.4,286047001.5,N
1579711195.2,286047011.9,Y
1579711215.1,286047000.2,P
1579711216.0,286047000.2,N
1579711235.8,286047000.5,N
1579711255.6,286046998.3,Y
1579711275.5,286046999.5,P
1579711295.3,286046997.7,P
1579711315.1,286046998.8,N
1579711335.9,286046995.0,Y
1579711355.7,286047001.0,P
1579711375.6,286047001.1,N
1579711395.4,286046996.6,P
1579711415.2,286046998.9,N
1579711435.1,286046998.9,N
1579711436.0,286046998.9,N
1579711455.8,286046999.4,N
1579711475.6,286046998.6,N
1579711495.5,286046999.0,N
1579711515.3,286046997.0,N
1579711535.2,286046997.4,N
1579711555.9,286046997.9,N
1579711575.7,286046996.6,N
1579711595.6,286046994.9,Y
1579711615.4,286046996.6,P
1579711635.2,286046996.7,P
1579711655.1,286046997.5,N
1579711656.0,286046997.5,Y
1579711675.8,286047000.9,P
1579711695.7,286046998.7,N
1579711715.5,286046999.5,N
1579711735.3,286046996.7,N
1579711755.2,286046999.6,N
1579711775.0,286046996.5,N
1579711775.9,286046996.5,N
1579711795.8,286046996.1,N
1579711815.6,286046997.3,N
1579711835.4,286046997.5,N
1579711855.3,286046997.5,N
1579711875.1,286046995.8,N
1579711895.8,286046995.0,Y
1579711915.7,286046997.4,P
1579711935.5,286046997.4,P
1579711955.4,286046999.3,P
1579711975.2,286046995.4,Y
1579711995.0,286046999.3,P
1579711995.9,286046999.3,N
1579712015.8,286046999.2,N
1579712035.6,286047000.7,N
1579712055.4,286047000.4,N
1579712075.3,286047002.8,Y
1579712095.1,286047005.9,P
1579712115.9,286047004.4,N
1579712135.7,286047001.5,N
1579712155.5,286047004.4,N
1579712175.4,286046999.8,N
1579712195.2,286046999.9,N
1579712215.0,286047002.8,N
1579712215.9,286047002.8,N
1579712235.8,286046999.9,N
1579712255.6,286047000.2,N
1579712275.5,286047002.7,N
1579712295.3,286047002.0,N
1579712315.1,286047003.1,N
1579712335.9,286047003.7,N
1579712355.7,286047005.0,N
1579712375.6,286047008.8,Y
1579712395.4,286047006.0,P
